Time,TemperatureF,DewpointF,PressureIn,WindDirection,WindDirectionDegrees,WindSpeedMPH,WindSpeedGustMPH,Humidity,HourlyPrecipIn,Conditions,Clouds,dailyrainin,SolarRadiationWatts/m^2,SoftwareType,DateUTC
2013-03-22 00:00:00,27.3,19.1,29.96,WSW,240,3.0,15.0,71,0.00,,---,0.00,0.00,VWS V14.00,2013-03-22 04:00:00,
2013-03-22 00:01:00,27.2,19.1,29.95,West,259,4.0,4.0,71,0.00,,---,0.00,0.00,VWS V14.00,2013-03-22 04:01:00,
2013-03-22 00:07:00,27.2,19.4,29.95,WSW,252,4.0,8.0,72,0.00,,---,0.00,0.00,VWS V14.00,2013-03-22 04:07:00,
2013-03-22 00:12:00,27.1,19.3,29.95,SW,228,4.0,13.0,72,0.00,,---,0.00,0.00,VWS V14.00,2013-03-22 04:12:00,
2013-03-22 00:17:00,27.0,19.2,29.95,WSW,240,2.0,13.0,72,0.00,,---,0.00,0.00,VWS V14.00,2013-03-22 04:17:00,
2013-03-22 00:22:00,27.0,19.5,29.95,WSW,242,5.0,13.0,73,0.00,,---,0.00,0.00,VWS V14.00,2013-03-22 04:22:00,
2013-03-22 00:27:00,27.0,19.5,29.95,West,269,10.0,13.0,73,0.00,,---,0.00,0.00,VWS V14.00,2013-03-22 04:27:00,
2013-03-22 00:30:00,27.0,19.2,29.95,WSW,240,7.0,13.0,72,0.00,,---,0.00,0.00,VWS V14.00,2013-03-22 04:30:00,
2013-03-22 00:32:00,27.0,19.5,29.95,West,261,5.0,8.0,73,0.00,,---,0.00,0.00,VWS V14.00,2013-03-22 04:32:00,
2013-03-22 00:37:00,27.0,19.5,29.95,WSW,250,3.0,10.0,73,0.00,,---,0.00,0.00,VWS V14.00,2013-03-22 04:37:00,
2013-03-22 00:42:00,27.0,19.2,29.95,WSW,253,5.0,12.0,72,0.00,,---,0.00,0.00,VWS V14.00,2013-03-22 04:42:00,
2013-03-22 00:47:00,27.1,19.3,29.94,WSW,252,5.0,12.0,72,0.00,,---,0.00,0.00,VWS V14.00,2013-03-22 04:47:00,
2013-03-22 00:52:00,27.0,19.2,29.94,West,279,9.0,12.0,72,0.00,,---,0.00,0.00,VWS V14.00,2013-03-22 04:52:00,
2013-03-22 00:57:00,27.0,19.2,29.94,West,267,12.0,19.0,72,0.00,,---,0.00,0.00,VWS V14.00,2013-03-22 04:57:00,
2013-03-22 01:00:00,26.9,19.4,29.94,West,261,5.0,19.0,73,0.00,,---,0.00,0.00,VWS V14.00,2013-03-22 05:00:00,
2013-03-22 01:02:00,26.9,19.4,29.95,SW,236,8.0,13.0,73,0.00,,---,0.00,0.00,VWS V14.00,2013-03-22 05:02:00,
2013-03-22 01:07:00,26.7,19.2,29.94,West,266,11.0,13.0,73,0.00,,---,0.00,0.00,VWS V14.00,2013-03-22 05:07:00,
2013-03-22 01:12:00,26.6,19.1,29.95,WSW,253,4.0,13.0,73,0.00,,---,0.00,0.00,VWS V14.00,2013-03-22 05:12:00,
2013-03-22 01:17:00,26.7,19.2,29.94,WSW,238,7.0,18.0,73,0.00,,---,0.00,0.00,VWS V14.00,2013-03-22 05:17:00,
2013-03-22 01:22:00,26.6,19.4,29.94,West,265,3.0,18.0,74,0.00,,---,0.00,0.00,VWS V14.00,2013-03-22 05:22:00,
2013-03-22 01:27:00,26.5,19.4,29.94,SW,217,4.0,18.0,74,0.00,,---,0.00,0.00,VWS V14.00,2013-03-22 05:27:00,
2013-03-22 01:30:00,26.4,19.2,29.94,West,260,12.0,18.0,74,0.00,,---,0.00,0.00,VWS V14.00,2013-03-22 05:30:00,
2013-03-22 01:32:00,26.5,19.4,29.94,WSW,255,4.0,12.0,74,0.00,,---,0.00,0.00,VWS V14.00,2013-03-22 05:32:00,
2013-03-22 01:37:00,26.3,19.5,29.94,West,269,7.0,12.0,75,0.00,,---,0.00,0.00,VWS V14.00,2013-03-22 05:37:00,
2013-03-22 01:42:00,26.3,19.5,29.94,WSW,249,3.0,12.0,75,0.00,,---,0.00,0.00,VWS V14.00,2013-03-22 05:42:00,
2013-03-22 01:47:00,26.3,19.5,29.94,WSW,258,3.0,12.0,75,0.00,,---,0.00,0.00,VWS V14.00,2013-03-22 05:47:00,
2013-03-22 01:52:00,26.3,19.5,29.94,West,265,7.0,12.0,75,0.00,,---,0.00,0.00,VWS V14.00,2013-03-22 05:52:00,
2013-03-22 01:57:00,26.1,19.3,29.94,West,267,7.0,12.0,75,0.00,,---,0.00,0.00,VWS V14.00,2013-03-22 05:57:00,
2013-03-22 02:00:00,26.1,19.3,29.94,WSW,246,10.0,12.0,75,0.00,,---,0.00,0.00,VWS V14.00,2013-03-22 06:00:00,
2013-03-22 02:02:00,26.1,19.3,29.94,WSW,251,5.0,12.0,75,0.00,,---,0.00,0.00,VWS V14.00,2013-03-22 06:02:00,
2013-03-22 02:07:00,26.0,19.5,29.94,WSW,254,7.0,12.0,76,0.00,,---,0.00,0.00,VWS V14.00,2013-03-22 06:07:00,
2013-03-22 02:12:00,26.0,19.5,29.94,WSW,258,2.0,12.0,76,0.00,,---,0.00,0.00,VWS V14.00,2013-03-22 06:12:00,
2013-03-22 02:17:00,25.9,19.4,29.94,West,267,8.0,12.0,76,0.00,,---,0.00,0.00,VWS V14.00,2013-03-22 06:17:00,
2013-03-22 02:22:00,26.0,19.5,29.94,West,265,6.0,13.0,76,0.00,,---,0.00,0.00,VWS V14.00,2013-03-22 06:22:00,
2013-03-22 02:27:00,26.1,19.6,29.94,West,264,5.0,13.0,76,0.00,,---,0.00,0.00,VWS V14.00,2013-03-22 06:27:00,
2013-03-22 02:30:00,26.1,19.9,29.95,West,264,3.0,13.0,77,0.00,,---,0.00,0.00,VWS V14.00,2013-03-22 06:30:00,
2013-03-22 02:32:00,26.0,19.8,29.95,West,274,5.0,7.0,77,0.00,,---,0.00,0.00,VWS V14.00,2013-03-22 06:32:00,
2013-03-22 02:37:00,26.1,19.9,29.95,West,267,7.0,14.0,77,0.00,,---,0.00,0.00,VWS V14.00,2013-03-22 06:37:00,
2013-03-22 02:43:00,26.2,20.0,29.95,West,259,7.0,14.0,77,0.00,,---,0.00,0.00,VWS V14.00,2013-03-22 06:43:00,
2013-03-22 02:48:00,26.3,19.8,29.95,West,267,3.0,14.0,76,0.00,,---,0.00,0.00,VWS V14.00,2013-03-22 06:48:00,
2013-03-22 02:53:00,26.3,19.8,29.95,WSW,247,6.0,14.0,76,0.00,,---,0.00,0.00,VWS V14.00,2013-03-22 06:53:00,
2013-03-22 02:58:00,26.4,19.9,29.95,WSW,254,4.0,14.0,76,0.00,,---,0.00,0.00,VWS V14.00,2013-03-22 06:58:00,
2013-03-22 03:00:00,26.4,19.9,29.95,West,259,3.0,14.0,76,0.00,,---,0.00,0.00,VWS V14.00,2013-03-22 07:00:00,
2013-03-22 03:03:00,26.4,19.6,29.95,WSW,254,6.0,7.0,75,0.00,,---,0.00,0.00,VWS V14.00,2013-03-22 07:03:00,
2013-03-22 03:08:00,26.5,19.7,29.95,SW,234,5.0,8.0,75,0.00,,---,0.00,0.00,VWS V14.00,2013-03-22 07:08:00,
2013-03-22 03:13:00,26.5,19.7,29.95,WSW,252,5.0,8.0,75,0.00,,---,0.00,0.00,VWS V14.00,2013-03-22 07:13:00,
2013-03-22 03:18:00,26.5,19.7,29.95,West,262,4.0,10.0,75,0.00,,---,0.00,0.00,VWS V14.00,2013-03-22 07:18:00,
2013-03-22 03:23:00,26.5,20.0,29.95,WSW,247,3.0,10.0,76,0.00,,---,0.00,0.00,VWS V14.00,2013-03-22 07:23:00,
2013-03-22 03:28:00,26.5,20.0,29.95,West,267,4.0,10.0,76,0.00,,---,0.00,0.00,VWS V14.00,2013-03-22 07:28:00,
2013-03-22 03:30:00,26.6,19.8,29.95,WSW,254,8.0,10.0,75,0.00,,---,0.00,0.00,VWS V14.00,2013-03-22 07:30:00,
2013-03-22 03:33:00,26.6,19.8,29.95,West,266,8.0,11.0,75,0.00,,---,0.00,0.00,VWS V14.00,2013-03-22 07:33:00,
2013-03-22 03:38:00,26.8,20.0,29.95,WSW,256,6.0,12.0,75,0.00,,---,0.00,0.00,VWS V14.00,2013-03-22 07:38:00,
2013-03-22 03:43:00,26.8,20.0,29.95,WSW,255,7.0,12.0,75,0.00,,---,0.00,0.00,VWS V14.00,2013-03-22 07:43:00,
2013-03-22 03:48:00,26.9,20.0,29.95,West,260,10.0,14.0,75,0.00,,---,0.00,0.00,VWS V14.00,2013-03-22 07:48:00,
2013-03-22 03:53:00,26.8,20.3,29.95,West,265,7.0,19.0,76,0.00,,---,0.00,0.00,VWS V14.00,2013-03-22 07:53:00,
2013-03-22 03:58:00,26.8,20.3,29.95,West,276,9.0,19.0,76,0.00,,---,0.00,0.00,VWS V14.00,2013-03-22 07:58:00,
2013-03-22 04:00:00,26.9,20.4,29.95,WSW,254,8.0,19.0,76,0.00,,---,0.00,0.00,VWS V14.00,2013-03-22 08:00:00,
2013-03-22 04:03:00,26.9,20.4,29.95,West,271,6.0,14.0,76,0.00,,---,0.00,0.00,VWS V14.00,2013-03-22 08:03:00,
2013-03-22 04:08:00,26.9,20.4,29.94,WSW,252,10.0,17.0,76,0.00,,---,0.00,0.00,VWS V14.00,2013-03-22 08:08:00,
2013-03-22 04:13:00,26.9,20.4,29.94,West,259,8.0,19.0,76,0.00,,---,0.00,0.00,VWS V14.00,2013-03-22 08:13:00,
2013-03-22 04:18:00,26.7,20.2,29.94,WSW,254,8.0,19.0,76,0.00,,---,0.00,0.00,VWS V14.00,2013-03-22 08:18:00,
2013-03-22 04:23:00,26.7,20.2,29.95,West,259,6.0,19.0,76,0.00,,---,0.00,0.00,VWS V14.00,2013-03-22 08:23:00,
2013-03-22 04:28:00,26.6,20.1,29.95,West,269,5.0,19.0,76,0.00,,---,0.00,0.00,VWS V14.00,2013-03-22 08:28:00,
2013-03-22 04:30:00,26.6,20.1,29.94,West,264,3.0,19.0,76,0.00,,---,0.00,0.00,VWS V14.00,2013-03-22 08:30:00,
2013-03-22 04:33:00,26.5,20.0,29.95,West,267,6.0,8.0,76,0.00,,---,0.00,0.00,VWS V14.00,2013-03-22 08:33:00,
2013-03-22 04:38:00,26.3,19.8,29.95,West,263,5.0,10.0,76,0.00,,---,0.00,0.00,VWS V14.00,2013-03-22 08:38:00,
2013-03-22 04:43:00,26.1,19.6,29.94,WSW,241,6.0,13.0,76,0.00,,---,0.00,0.00,VWS V14.00,2013-03-22 08:43:00,
2013-03-22 04:48:00,26.0,19.5,29.95,West,266,3.0,13.0,76,0.00,,---,0.00,0.00,VWS V14.00,2013-03-22 08:48:00,
2013-03-22 04:53:00,25.8,19.6,29.94,WSW,252,6.0,13.0,77,0.00,,---,0.00,0.00,VWS V14.00,2013-03-22 08:53:00,
2013-03-22 04:58:00,25.8,19.6,29.94,WSW,250,5.0,13.0,77,0.00,,---,0.00,0.00,VWS V14.00,2013-03-22 08:58:00,
2013-03-22 05:00:00,25.8,19.6,29.95,WSW,249,4.0,15.0,77,0.00,,---,0.00,0.00,VWS V14.00,2013-03-22 09:00:00,
2013-03-22 05:03:00,25.7,19.5,29.95,West,263,4.0,11.0,77,0.00,,---,0.00,0.00,VWS V14.00,2013-03-22 09:03:00,
2013-03-22 05:08:00,25.7,19.5,29.95,SW,236,4.0,13.0,77,0.00,,---,0.00,0.00,VWS V14.00,2013-03-22 09:08:00,
2013-03-22 05:13:00,25.6,19.4,29.94,West,269,6.0,13.0,77,0.00,,---,0.00,0.00,VWS V14.00,2013-03-22 09:13:00,
2013-03-22 05:18:00,25.4,19.5,29.95,West,263,5.0,13.0,78,0.00,,---,0.00,0.00,VWS V14.00,2013-03-22 09:18:00,
2013-03-22 05:23:00,25.2,19.3,29.95,West,265,2.0,13.0,78,0.00,,---,0.00,0.00,VWS V14.00,2013-03-22 09:23:00,
2013-03-22 05:28:00,25.1,19.5,29.95,West,259,6.0,13.0,79,0.00,,---,0.00,0.00,VWS V14.00,2013-03-22 09:28:00,
2013-03-22 05:30:00,25.0,19.4,29.95,WSW,252,4.0,14.0,79,0.00,,---,0.00,0.00,VWS V14.00,2013-03-22 09:30:00,
2013-03-22 05:33:00,25.0,19.4,29.95,West,262,10.0,10.0,79,0.00,,---,0.00,0.00,VWS V14.00,2013-03-22 09:33:00,
2013-03-22 05:38:00,25.1,19.5,29.95,WSW,257,7.0,10.0,79,0.00,,---,0.00,0.00,VWS V14.00,2013-03-22 09:38:00,
2013-03-22 05:43:00,25.0,19.7,29.96,WSW,257,2.0,10.0,80,0.00,,---,0.00,0.00,VWS V14.00,2013-03-22 09:43:00,
2013-03-22 05:48:00,25.1,19.8,29.96,West,265,2.0,11.0,80,0.00,,---,0.00,0.00,VWS V14.00,2013-03-22 09:48:00,
2013-03-22 05:53:00,25.1,19.8,29.96,WSW,258,3.0,11.0,80,0.00,,---,0.00,0.00,VWS V14.00,2013-03-22 09:53:00,
2013-03-22 05:58:00,25.3,19.7,29.96,WSW,251,3.0,11.0,79,0.00,,---,0.00,0.00,VWS V14.00,2013-03-22 09:58:00,
2013-03-22 06:00:00,25.4,20.1,29.96,SW,231,5.0,11.0,80,0.00,,---,0.00,0.00,VWS V14.00,2013-03-22 10:00:00,
2013-03-22 06:03:00,25.5,19.9,29.96,West,259,4.0,10.0,79,0.00,,---,0.00,0.00,VWS V14.00,2013-03-22 10:03:00,
2013-03-22 06:08:00,25.6,20.0,29.96,West,279,4.0,10.0,79,0.00,,---,0.00,0.00,VWS V14.00,2013-03-22 10:08:00,
2013-03-22 06:13:00,25.8,19.9,29.96,SW,236,3.0,10.0,78,0.00,,---,0.00,0.00,VWS V14.00,2013-03-22 10:13:00,
2013-03-22 06:19:00,25.8,19.6,29.96,West,261,3.0,10.0,77,0.00,,---,0.00,0.00,VWS V14.00,2013-03-22 10:19:00,
2013-03-22 06:24:00,25.9,19.7,29.96,WSW,258,3.0,10.0,77,0.00,,---,0.00,0.00,VWS V14.00,2013-03-22 10:24:00,
2013-03-22 06:29:00,25.8,19.3,29.96,WSW,257,5.0,10.0,76,0.00,,---,0.00,0.00,VWS V14.00,2013-03-22 10:29:00,
2013-03-22 06:30:00,25.8,19.3,29.95,WSW,241,3.0,10.0,76,0.00,,---,0.00,0.00,VWS V14.00,2013-03-22 10:30:00,
2013-03-22 06:34:00,25.7,19.2,29.95,WSW,250,3.0,7.0,76,0.00,,---,0.00,0.00,VWS V14.00,2013-03-22 10:34:00,
2013-03-22 06:39:00,25.6,19.1,29.96,West,263,4.0,8.0,76,0.00,,---,0.00,0.00,VWS V14.00,2013-03-22 10:39:00,
2013-03-22 06:44:00,25.6,18.8,29.96,West,263,4.0,8.0,75,0.00,,---,0.00,0.00,VWS V14.00,2013-03-22 10:44:00,
2013-03-22 06:49:00,25.6,18.8,29.96,WSW,240,3.0,8.0,75,0.00,,---,0.00,0.00,VWS V14.00,2013-03-22 10:49:00,
2013-03-22 06:54:00,25.4,18.6,29.96,WSW,257,5.0,13.0,75,0.00,,---,0.00,0.00,VWS V14.00,2013-03-22 10:54:00,
2013-03-22 06:59:00,25.4,18.6,29.97,WSW,254,2.0,13.0,75,0.00,,---,0.00,0.00,VWS V14.00,2013-03-22 10:59:00,
2013-03-22 07:00:00,25.4,18.3,29.97,WNW,286,6.0,13.0,74,0.00,,---,0.00,0.00,VWS V14.00,2013-03-22 11:00:00,
2013-03-22 07:04:00,25.4,18.3,29.97,West,261,4.0,8.0,74,0.00,,---,0.00,0.00,VWS V14.00,2013-03-22 11:04:00,
2013-03-22 07:09:00,25.3,18.2,29.97,WSW,240,2.0,8.0,74,0.00,,---,0.00,0.00,VWS V14.00,2013-03-22 11:09:00,
2013-03-22 07:14:00,25.1,18.3,29.97,WSW,257,3.0,8.0,75,0.00,,---,0.00,0.00,VWS V14.00,2013-03-22 11:14:00,
2013-03-22 07:19:00,24.9,17.8,29.97,WSW,243,4.0,8.0,74,0.00,,---,0.00,0.00,VWS V14.00,2013-03-22 11:19:00,
2013-03-22 07:24:00,24.9,17.8,29.97,West,275,6.0,8.0,74,0.00,,---,0.00,5.00,VWS V14.00,2013-03-22 11:24:00,
2013-03-22 07:29:00,25.1,18.0,29.97,WSW,246,3.0,11.0,74,0.00,,---,0.00,11.00,VWS V14.00,2013-03-22 11:29:00,
2013-03-22 07:30:00,25.2,17.8,29.97,WSW,257,5.0,11.0,73,0.00,,---,0.00,11.00,VWS V14.00,2013-03-22 11:30:00,
2013-03-22 07:34:00,25.2,17.8,29.97,West,265,12.0,12.0,73,0.00,,---,0.00,14.00,VWS V14.00,2013-03-22 11:34:00,
2013-03-22 07:39:00,25.4,18.0,29.97,WSW,248,2.0,12.0,73,0.00,,---,0.00,14.00,VWS V14.00,2013-03-22 11:39:00,
2013-03-22 07:44:00,25.5,17.8,29.97,West,267,10.0,14.0,72,0.00,,---,0.00,21.00,VWS V14.00,2013-03-22 11:44:00,
2013-03-22 07:49:00,25.6,17.8,29.98,WSW,246,5.0,14.0,72,0.00,,---,0.00,23.00,VWS V14.00,2013-03-22 11:49:00,
2013-03-22 07:54:00,25.8,17.7,29.97,WSW,244,8.0,14.0,71,0.00,,---,0.00,23.00,VWS V14.00,2013-03-22 11:54:00,
2013-03-22 07:59:00,25.9,17.8,29.98,WSW,257,5.0,14.0,71,0.00,,---,0.00,28.00,VWS V14.00,2013-03-22 11:59:00,
2013-03-22 08:00:00,26.0,17.6,29.98,WSW,252,8.0,18.0,70,0.00,,---,0.00,30.00,VWS V14.00,2013-03-22 12:00:00,
2013-03-22 08:04:00,26.0,17.6,29.98,West,263,7.0,16.0,70,0.00,,---,0.00,28.00,VWS V14.00,2013-03-22 12:04:00,
2013-03-22 08:09:00,26.0,17.6,29.98,West,263,5.0,16.0,70,0.00,,---,0.00,28.00,VWS V14.00,2013-03-22 12:09:00,
2013-03-22 08:14:00,26.1,17.7,29.98,West,265,6.0,16.0,70,0.00,,---,0.00,32.00,VWS V14.00,2013-03-22 12:14:00,
2013-03-22 08:19:00,26.1,18.0,29.98,WSW,247,8.0,16.0,71,0.00,,---,0.00,54.00,VWS V14.00,2013-03-22 12:19:00,
2013-03-22 08:24:00,26.1,18.0,29.99,West,275,9.0,16.0,71,0.00,,---,0.00,69.00,VWS V14.00,2013-03-22 12:24:00,
2013-03-22 08:29:00,26.0,17.9,29.98,West,279,8.0,16.0,71,0.00,,---,0.00,93.00,VWS V14.00,2013-03-22 12:29:00,
2013-03-22 08:30:00,26.0,17.9,29.99,West,259,12.0,16.0,71,0.00,,---,0.00,148.00,VWS V14.00,2013-03-22 12:30:00,
2013-03-22 08:34:00,26.2,18.1,29.99,West,261,6.0,12.0,71,0.00,,---,0.00,146.00,VWS V14.00,2013-03-22 12:34:00,
2013-03-22 08:39:00,26.3,17.9,29.99,WSW,252,5.0,12.0,70,0.00,,---,0.00,102.00,VWS V14.00,2013-03-22 12:39:00,
2013-03-22 08:44:00,26.5,18.0,29.99,West,273,7.0,12.0,70,0.00,,---,0.00,77.00,VWS V14.00,2013-03-22 12:44:00,
2013-03-22 08:49:00,26.6,18.1,29.99,WSW,240,11.0,13.0,70,0.00,,---,0.00,104.00,VWS V14.00,2013-03-22 12:49:00,
2013-03-22 08:54:00,26.6,18.1,29.99,WSW,240,5.0,14.0,70,0.00,,---,0.00,109.00,VWS V14.00,2013-03-22 12:54:00,
2013-03-22 09:00:00,26.5,18.0,29.99,West,263,10.0,14.0,70,0.00,,---,0.00,169.00,VWS V14.00,2013-03-22 13:00:00,
2013-03-22 09:05:00,26.7,18.2,29.99,West,260,5.0,12.0,70,0.00,,---,0.00,155.00,VWS V14.00,2013-03-22 13:05:00,
2013-03-22 09:10:00,26.9,18.4,29.99,WNW,292,11.0,13.0,70,0.00,,---,0.00,234.00,VWS V14.00,2013-03-22 13:10:00,
2013-03-22 09:15:00,27.0,18.5,29.99,WSW,251,8.0,18.0,70,0.00,,---,0.00,329.00,VWS V14.00,2013-03-22 13:15:00,
2013-03-22 09:20:00,27.4,18.6,29.99,West,268,5.0,18.0,69,0.00,,---,0.00,388.00,VWS V14.00,2013-03-22 13:20:00,
2013-03-22 09:25:00,27.6,19.1,29.99,WNW,284,9.0,18.0,70,0.00,,---,0.00,413.00,VWS V14.00,2013-03-22 13:25:00,
2013-03-22 09:30:00,27.4,18.6,30.00,West,259,11.0,18.0,69,0.00,,---,0.00,172.00,VWS V14.00,2013-03-22 13:30:00,
2013-03-22 09:35:00,27.5,18.7,30.00,WNW,296,9.0,12.0,69,0.00,,---,0.00,229.00,VWS V14.00,2013-03-22 13:35:00,
2013-03-22 09:40:00,27.7,18.9,30.00,West,269,6.0,13.0,69,0.00,,---,0.00,218.00,VWS V14.00,2013-03-22 13:40:00,
2013-03-22 09:45:00,27.7,18.5,30.00,SW,235,6.0,14.0,68,0.00,,---,0.00,199.00,VWS V14.00,2013-03-22 13:45:00,
2013-03-22 09:50:00,27.5,18.7,30.00,WSW,246,4.0,14.0,69,0.00,,---,0.00,218.00,VWS V14.00,2013-03-22 13:50:00,
2013-03-22 09:55:00,27.8,19.0,30.00,WSW,255,7.0,14.0,69,0.00,,---,0.00,274.00,VWS V14.00,2013-03-22 13:55:00,
2013-03-22 10:00:00,27.9,18.7,30.00,West,259,8.0,15.0,68,0.00,,---,0.00,214.00,VWS V14.00,2013-03-22 14:00:00,
2013-03-22 10:05:00,27.7,18.9,30.01,WSW,247,3.0,12.0,69,0.00,,---,0.00,323.00,VWS V14.00,2013-03-22 14:05:00,
2013-03-22 10:10:00,27.7,18.9,30.00,West,259,3.0,12.0,69,0.00,,---,0.00,295.00,VWS V14.00,2013-03-22 14:10:00,
2013-03-22 10:15:00,28.3,19.8,30.00,WSW,252,4.0,13.0,70,0.00,,---,0.00,694.00,VWS V14.00,2013-03-22 14:15:00,
2013-03-22 10:20:00,29.2,20.6,30.00,West,263,5.0,13.0,70,0.00,,---,0.00,740.00,VWS V14.00,2013-03-22 14:20:00,
2013-03-22 10:25:00,30.1,20.5,30.00,SSW,207,4.0,13.0,67,0.00,,---,0.00,724.00,VWS V14.00,2013-03-22 14:25:00,
2013-03-22 10:30:00,30.6,20.6,30.00,West,263,8.0,13.0,66,0.00,,---,0.00,710.00,VWS V14.00,2013-03-22 14:30:00,
2013-03-22 10:35:00,30.0,20.0,30.01,West,278,7.0,12.0,66,0.00,,---,0.00,343.00,VWS V14.00,2013-03-22 14:35:00,
2013-03-22 10:40:00,29.5,19.2,30.01,WSW,253,12.0,13.0,65,0.00,,---,0.00,248.00,VWS V14.00,2013-03-22 14:40:00,
2013-03-22 10:45:00,28.9,19.0,30.01,West,266,2.0,13.0,66,0.00,,---,0.00,287.00,VWS V14.00,2013-03-22 14:45:00,
2013-03-22 10:50:00,28.8,19.2,30.01,West,263,6.0,13.0,67,0.00,,---,0.00,285.00,VWS V14.00,2013-03-22 14:50:00,
2013-03-22 10:55:00,29.2,19.3,30.00,West,271,8.0,13.0,66,0.00,,---,0.00,921.00,VWS V14.00,2013-03-22 14:55:00,
2013-03-22 11:00:00,29.7,19.0,30.00,WNW,290,11.0,13.0,64,0.00,,---,0.00,309.00,VWS V14.00,2013-03-22 15:00:00,
2013-03-22 11:05:00,29.6,18.9,30.01,West,279,6.0,15.0,64,0.00,,---,0.00,283.00,VWS V14.00,2013-03-22 15:05:00,
2013-03-22 11:10:00,29.4,18.7,30.00,West,279,5.0,15.0,64,0.00,,---,0.00,332.00,VWS V14.00,2013-03-22 15:10:00,
2013-03-22 11:16:00,30.0,19.3,30.00,WSW,255,2.0,15.0,64,0.00,,---,0.00,360.00,VWS V14.00,2013-03-22 15:16:00,
2013-03-22 11:21:00,30.3,18.9,30.00,West,265,8.0,18.0,62,0.00,,---,0.00,272.00,VWS V14.00,2013-03-22 15:21:00,
2013-03-22 11:26:00,29.9,18.9,30.00,West,281,12.0,18.0,63,0.00,,---,0.00,302.00,VWS V14.00,2013-03-22 15:26:00,
2013-03-22 11:30:00,29.8,18.0,30.00,West,269,8.0,18.0,61,0.00,,---,0.00,323.00,VWS V14.00,2013-03-22 15:30:00,
2013-03-22 11:31:00,29.8,18.0,30.00,West,269,8.0,18.0,61,0.00,,---,0.00,323.00,VWS V14.00,2013-03-22 15:31:00,
2013-03-22 11:36:00,29.8,18.0,30.00,WSW,251,11.0,18.0,61,0.00,,---,0.00,255.00,VWS V14.00,2013-03-22 15:36:00,
2013-03-22 11:41:00,29.8,18.0,30.00,West,271,11.0,18.0,61,0.00,,---,0.00,279.00,VWS V14.00,2013-03-22 15:41:00,
2013-03-22 11:46:00,29.7,18.3,30.00,West,280,6.0,18.0,62,0.00,,---,0.00,276.00,VWS V14.00,2013-03-22 15:46:00,
2013-03-22 11:51:00,29.8,18.4,30.01,WNW,293,9.0,18.0,62,0.00,,---,0.00,290.00,VWS V14.00,2013-03-22 15:51:00,
2013-03-22 11:56:00,29.9,18.5,30.01,West,267,10.0,18.0,62,0.00,,---,0.00,267.00,VWS V14.00,2013-03-22 15:56:00,
2013-03-22 12:00:00,29.9,18.5,30.01,NW,307,7.0,18.0,62,0.00,,---,0.00,265.00,VWS V14.00,2013-03-22 16:00:00,
2013-03-22 12:01:00,29.9,18.5,30.01,WNW,296,7.0,7.0,62,0.00,,---,0.00,271.00,VWS V14.00,2013-03-22 16:01:00,
2013-03-22 12:06:00,30.1,18.7,30.00,WNW,300,9.0,18.0,62,0.00,,---,0.00,311.00,VWS V14.00,2013-03-22 16:06:00,
2013-03-22 12:11:00,30.3,19.2,30.00,West,265,6.0,18.0,63,0.00,,---,0.00,415.00,VWS V14.00,2013-03-22 16:11:00,
2013-03-22 12:16:00,30.5,18.7,30.00,West,277,9.0,19.0,61,0.00,,---,0.00,355.00,VWS V14.00,2013-03-22 16:16:00,
2013-03-22 12:21:00,30.5,18.7,30.00,West,277,7.0,19.0,61,0.00,,---,0.00,443.00,VWS V14.00,2013-03-22 16:21:00,
2013-03-22 12:26:00,30.8,19.0,30.00,WNW,300,2.0,19.0,61,0.00,,---,0.00,621.00,VWS V14.00,2013-03-22 16:26:00,
2013-03-22 12:30:00,32.1,20.2,30.00,WNW,285,7.0,19.0,61,0.00,,---,0.00,1181.00,VWS V14.00,2013-03-22 16:30:00,
2013-03-22 12:31:00,32.3,20.4,30.00,West,281,8.0,8.0,61,0.00,,---,0.00,1181.00,VWS V14.00,2013-03-22 16:31:00,
2013-03-22 12:36:00,32.1,19.0,30.00,WSW,247,6.0,13.0,58,0.00,,---,0.00,461.00,VWS V14.00,2013-03-22 16:36:00,
2013-03-22 12:41:00,31.7,19.0,30.00,West,279,6.0,13.0,59,0.00,,---,0.00,297.00,VWS V14.00,2013-03-22 16:41:00,
2013-03-22 12:47:00,31.6,18.9,30.00,West,274,7.0,14.0,59,0.00,,---,0.00,441.00,VWS V14.00,2013-03-22 16:47:00,
2013-03-22 12:52:00,31.5,19.2,30.00,West,277,5.0,16.0,60,0.00,,---,0.00,1044.00,VWS V14.00,2013-03-22 16:52:00,
2013-03-22 12:57:00,32.9,20.5,29.99,West,265,7.0,16.0,60,0.00,,---,0.00,995.00,VWS V14.00,2013-03-22 16:57:00,
2013-03-22 13:00:00,33.5,21.1,29.99,West,271,7.0,16.0,60,0.00,,---,0.00,1065.00,VWS V14.00,2013-03-22 17:00:00,
2013-03-22 13:02:00,33.7,21.3,29.99,WSW,248,4.0,8.0,60,0.00,,---,0.00,1065.00,VWS V14.00,2013-03-22 17:02:00,
2013-03-22 13:07:00,33.9,19.9,30.00,WSW,253,11.0,16.0,56,0.00,,---,0.00,262.00,VWS V14.00,2013-03-22 17:07:00,
2013-03-22 13:12:00,33.6,19.2,29.99,NW,304,8.0,16.0,55,0.00,,---,0.00,332.00,VWS V14.00,2013-03-22 17:12:00,
2013-03-22 13:17:00,33.1,19.9,29.99,WNW,296,6.0,16.0,58,0.00,,---,0.00,577.00,VWS V14.00,2013-03-22 17:17:00,
2013-03-22 13:22:00,33.1,19.9,29.99,West,270,6.0,16.0,58,0.00,,---,0.00,341.00,VWS V14.00,2013-03-22 17:22:00,
2013-03-22 13:27:00,33.5,20.3,29.99,NW,305,7.0,16.0,58,0.00,,---,0.00,357.00,VWS V14.00,2013-03-22 17:27:00,
2013-03-22 13:30:00,33.6,20.0,29.99,WSW,254,2.0,16.0,57,0.00,,---,0.00,1097.00,VWS V14.00,2013-03-22 17:30:00,
2013-03-22 13:32:00,33.6,20.0,30.00,WSW,250,3.0,5.0,57,0.00,,---,0.00,1097.00,VWS V14.00,2013-03-22 17:32:00,
2013-03-22 13:37:00,34.7,21.0,29.99,WNW,303,5.0,12.0,57,0.00,,---,0.00,1125.00,VWS V14.00,2013-03-22 17:37:00,
2013-03-22 13:42:00,34.7,21.0,30.00,NW,319,7.0,13.0,57,0.00,,---,0.00,369.00,VWS V14.00,2013-03-22 17:42:00,
2013-03-22 13:47:00,34.3,20.7,30.00,West,266,6.0,14.0,57,0.00,,---,0.00,990.00,VWS V14.00,2013-03-22 17:47:00,
2013-03-22 13:52:00,34.3,19.8,30.00,WNW,290,7.0,16.0,55,0.00,,---,0.00,313.00,VWS V14.00,2013-03-22 17:52:00,
2013-03-22 13:57:00,34.6,21.0,30.00,West,277,9.0,16.0,57,0.00,,---,0.00,867.00,VWS V14.00,2013-03-22 17:57:00,
2013-03-22 14:00:00,34.9,20.4,30.00,WSW,254,10.0,16.0,55,0.00,,---,0.00,380.00,VWS V14.00,2013-03-22 18:00:00,
2013-03-22 14:02:00,34.8,20.3,30.00,West,265,10.0,13.0,55,0.00,,---,0.00,380.00,VWS V14.00,2013-03-22 18:02:00,
2013-03-22 14:07:00,34.5,20.4,30.00,WSW,254,5.0,13.0,56,0.00,,---,0.00,290.00,VWS V14.00,2013-03-22 18:07:00,
2013-03-22 14:12:00,35.4,21.3,30.00,West,262,8.0,14.0,56,0.00,,---,0.00,1121.00,VWS V14.00,2013-03-22 18:12:00,
2013-03-22 14:17:00,35.9,21.3,29.99,West,271,9.0,17.0,55,0.00,,---,0.00,1085.00,VWS V14.00,2013-03-22 18:17:00,
2013-03-22 14:22:00,35.9,21.3,29.99,SSW,194,4.0,17.0,55,0.00,,---,0.00,1069.00,VWS V14.00,2013-03-22 18:22:00,
2013-03-22 14:27:00,36.4,22.6,29.99,WNW,294,8.0,26.0,57,0.00,,---,0.00,1095.00,VWS V14.00,2013-03-22 18:27:00,
2013-03-22 14:30:00,36.8,22.2,29.99,WSW,246,6.0,26.0,55,0.00,,---,0.00,1058.00,VWS V14.00,2013-03-22 18:30:00,
2013-03-22 14:32:00,36.9,21.8,29.99,West,269,5.0,13.0,54,0.00,,---,0.00,1076.00,VWS V14.00,2013-03-22 18:32:00,
2013-03-22 14:37:00,36.6,20.6,29.99,West,279,14.0,16.0,52,0.00,,---,0.00,221.00,VWS V14.00,2013-03-22 18:37:00,
2013-03-22 14:42:00,36.0,20.5,29.98,West,281,6.0,20.0,53,0.00,,---,0.00,904.00,VWS V14.00,2013-03-22 18:42:00,
2013-03-22 14:47:00,36.1,21.9,29.99,WNW,289,9.0,20.0,56,0.00,,---,0.00,893.00,VWS V14.00,2013-03-22 18:47:00,
2013-03-22 14:52:00,36.7,21.2,29.99,West,268,10.0,20.0,53,0.00,,---,0.00,912.00,VWS V14.00,2013-03-22 18:52:00,
2013-03-22 14:57:00,36.7,21.2,29.99,West,277,7.0,20.0,53,0.00,,---,0.00,889.00,VWS V14.00,2013-03-22 18:57:00,
2013-03-22 15:00:00,37.1,22.9,29.98,West,268,8.0,20.0,56,0.00,,---,0.00,858.00,VWS V14.00,2013-03-22 19:00:00,
2013-03-22 15:03:00,37.5,22.4,29.98,West,267,6.0,13.0,54,0.00,,---,0.00,860.00,VWS V14.00,2013-03-22 19:03:00,
2013-03-22 15:08:00,37.4,21.9,29.98,WSW,250,5.0,18.0,53,0.00,,---,0.00,838.00,VWS V14.00,2013-03-22 19:08:00,
2013-03-22 15:13:00,37.6,21.6,29.98,West,277,9.0,18.0,52,0.00,,---,0.00,911.00,VWS V14.00,2013-03-22 19:13:00,
2013-03-22 15:18:00,37.9,21.9,29.98,WNW,290,7.0,18.0,52,0.00,,---,0.00,884.00,VWS V14.00,2013-03-22 19:18:00,
2013-03-22 15:23:00,37.2,20.8,29.98,WNW,292,7.0,18.0,51,0.00,,---,0.00,271.00,VWS V14.00,2013-03-22 19:23:00,
2013-03-22 15:28:00,37.1,21.6,29.98,WNW,292,7.0,18.0,53,0.00,,---,0.00,846.00,VWS V14.00,2013-03-22 19:28:00,
2013-03-22 15:30:00,37.0,21.5,29.98,NW,316,7.0,18.0,53,0.00,,---,0.00,807.00,VWS V14.00,2013-03-22 19:30:00,
2013-03-22 15:33:00,37.3,21.8,29.97,West,270,18.0,18.0,53,0.00,,---,0.00,817.00,VWS V14.00,2013-03-22 19:33:00,
2013-03-22 15:38:00,37.2,20.3,29.98,WNW,287,5.0,18.0,50,0.00,,---,0.00,791.00,VWS V14.00,2013-03-22 19:38:00,
2013-03-22 15:43:00,37.3,21.8,29.97,West,277,19.0,20.0,53,0.00,,---,0.00,768.00,VWS V14.00,2013-03-22 19:43:00,
2013-03-22 15:48:00,37.9,21.9,29.97,West,277,14.0,20.0,52,0.00,,---,0.00,728.00,VWS V14.00,2013-03-22 19:48:00,
2013-03-22 15:53:00,38.5,22.0,29.97,WNW,282,9.0,20.0,51,0.00,,---,0.00,703.00,VWS V14.00,2013-03-22 19:53:00,
2013-03-22 15:58:00,38.2,21.2,29.97,West,264,10.0,20.0,50,0.00,,---,0.00,691.00,VWS V14.00,2013-03-22 19:58:00,
2013-03-22 16:00:00,38.3,21.3,29.97,WNW,283,9.0,20.0,50,0.00,,---,0.00,687.00,VWS V14.00,2013-03-22 20:00:00,
2013-03-22 16:03:00,38.4,21.4,29.97,WNW,286,11.0,22.0,50,0.00,,---,0.00,703.00,VWS V14.00,2013-03-22 20:03:00,
2013-03-22 16:08:00,38.2,21.7,29.97,West,269,10.0,22.0,51,0.00,,---,0.00,650.00,VWS V14.00,2013-03-22 20:08:00,
2013-03-22 16:13:00,38.4,21.9,29.97,West,271,13.0,22.0,51,0.00,,---,0.00,642.00,VWS V14.00,2013-03-22 20:13:00,
2013-03-22 16:18:00,38.6,21.6,29.97,West,281,7.0,22.0,50,0.00,,---,0.00,613.00,VWS V14.00,2013-03-22 20:18:00,
2013-03-22 16:23:00,38.7,21.7,29.97,WNW,283,6.0,22.0,50,0.00,,---,0.00,605.00,VWS V14.00,2013-03-22 20:23:00,
2013-03-22 16:28:00,39.2,21.7,29.97,NW,309,13.0,22.0,49,0.00,,---,0.00,585.00,VWS V14.00,2013-03-22 20:28:00,
2013-03-22 16:30:00,39.0,21.0,29.97,NW,304,12.0,24.0,48,0.00,,---,0.00,584.00,VWS V14.00,2013-03-22 20:30:00,
2013-03-22 16:33:00,38.8,20.8,29.97,NW,309,12.0,19.0,48,0.00,,---,0.00,575.00,VWS V14.00,2013-03-22 20:33:00,
2013-03-22 16:38:00,38.7,20.7,29.97,West,281,12.0,19.0,48,0.00,,---,0.00,563.00,VWS V14.00,2013-03-22 20:38:00,
2013-03-22 16:43:00,38.4,20.9,29.97,NW,308,11.0,19.0,49,0.00,,---,0.00,540.00,VWS V14.00,2013-03-22 20:43:00,
2013-03-22 16:48:00,38.6,21.6,29.97,WNW,292,8.0,19.0,50,0.00,,---,0.00,543.00,VWS V14.00,2013-03-22 20:48:00,
2013-03-22 16:53:00,39.1,21.1,29.96,West,273,12.0,19.0,48,0.00,,---,0.00,513.00,VWS V14.00,2013-03-22 20:53:00,
2013-03-22 16:58:00,39.2,21.7,29.96,NW,312,13.0,19.0,49,0.00,,---,0.00,494.00,VWS V14.00,2013-03-22 20:58:00,
2013-03-22 17:00:00,39.1,21.1,29.96,West,272,6.0,19.0,48,0.00,,---,0.00,487.00,VWS V14.00,2013-03-22 21:00:00,
2013-03-22 17:03:00,39.1,21.6,29.96,WNW,291,6.0,12.0,49,0.00,,---,0.00,482.00,VWS V14.00,2013-03-22 21:03:00,
2013-03-22 17:08:00,39.0,21.5,29.97,WNW,288,8.0,14.0,49,0.00,,---,0.00,462.00,VWS V14.00,2013-03-22 21:08:00,
2013-03-22 17:13:00,39.0,21.5,29.97,NW,314,6.0,14.0,49,0.00,,---,0.00,441.00,VWS V14.00,2013-03-22 21:13:00,
2013-03-22 17:18:00,39.4,21.8,29.97,West,267,10.0,14.0,49,0.00,,---,0.00,425.00,VWS V14.00,2013-03-22 21:18:00,
2013-03-22 17:23:00,39.2,21.2,29.97,NNW,330,8.0,14.0,48,0.00,,---,0.00,410.00,VWS V14.00,2013-03-22 21:23:00,
2013-03-22 17:28:00,39.2,21.7,29.97,West,281,9.0,14.0,49,0.00,,---,0.00,387.00,VWS V14.00,2013-03-22 21:28:00,
2013-03-22 17:30:00,39.3,21.8,29.97,West,275,5.0,14.0,49,0.00,,---,0.00,381.00,VWS V14.00,2013-03-22 21:30:00,
2013-03-22 17:33:00,39.5,21.9,29.97,NW,313,4.0,9.0,49,0.00,,---,0.00,373.00,VWS V14.00,2013-03-22 21:33:00,
2013-03-22 17:38:00,39.5,21.5,29.97,WNW,296,7.0,12.0,48,0.00,,---,0.00,327.00,VWS V14.00,2013-03-22 21:38:00,
2013-03-22 17:43:00,39.4,22.3,29.97,WNW,287,5.0,13.0,50,0.00,,---,0.00,341.00,VWS V14.00,2013-03-22 21:43:00,
2013-03-22 17:49:00,39.5,21.5,29.97,WNW,293,6.0,13.0,48,0.00,,---,0.00,320.00,VWS V14.00,2013-03-22 21:49:00,
2013-03-22 17:54:00,39.6,21.5,29.97,WNW,290,5.0,14.0,48,0.00,,---,0.00,301.00,VWS V14.00,2013-03-22 21:54:00,
2013-03-22 17:59:00,39.4,21.4,29.97,West,271,7.0,16.0,48,0.00,,---,0.00,283.00,VWS V14.00,2013-03-22 21:59:00,
2013-03-22 18:00:00,39.3,21.3,29.97,WNW,292,5.0,16.0,48,0.00,,---,0.00,272.00,VWS V14.00,2013-03-22 22:00:00,
2013-03-22 18:04:00,39.3,21.8,29.97,NW,308,8.0,11.0,49,0.00,,---,0.00,262.00,VWS V14.00,2013-03-22 22:04:00,
2013-03-22 18:09:00,39.3,21.3,29.97,West,279,6.0,11.0,48,0.00,,---,0.00,239.00,VWS V14.00,2013-03-22 22:09:00,
2013-03-22 18:14:00,39.5,21.5,29.97,West,279,4.0,11.0,48,0.00,,---,0.00,216.00,VWS V14.00,2013-03-22 22:14:00,
2013-03-22 18:19:00,39.4,21.4,29.97,WNW,298,4.0,14.0,48,0.00,,---,0.00,195.00,VWS V14.00,2013-03-22 22:19:00,
2013-03-22 18:24:00,39.2,21.7,29.97,West,281,5.0,14.0,49,0.00,,---,0.00,176.00,VWS V14.00,2013-03-22 22:24:00,
2013-03-22 18:29:00,39.3,21.8,29.97,WNW,300,7.0,14.0,49,0.00,,---,0.00,155.00,VWS V14.00,2013-03-22 22:29:00,
2013-03-22 18:30:00,39.2,21.7,29.97,NW,305,12.0,14.0,49,0.00,,---,0.00,144.00,VWS V14.00,2013-03-22 22:30:00,
2013-03-22 18:34:00,39.2,21.7,29.97,WNW,287,4.0,12.0,49,0.00,,---,0.00,132.00,VWS V14.00,2013-03-22 22:34:00,
2013-03-22 18:39:00,38.9,21.9,29.97,NW,310,1.0,12.0,50,0.00,,---,0.00,109.00,VWS V14.00,2013-03-22 22:39:00,
2013-03-22 18:44:00,38.8,21.8,29.97,WNW,296,2.0,12.0,50,0.00,,---,0.00,86.00,VWS V14.00,2013-03-22 22:44:00,
2013-03-22 18:49:00,38.5,21.5,29.97,NW,310,4.0,12.0,50,0.00,,---,0.00,62.00,VWS V14.00,2013-03-22 22:49:00,
2013-03-22 18:54:00,38.3,21.3,29.97,NW,306,2.0,12.0,50,0.00,,---,0.00,54.00,VWS V14.00,2013-03-22 22:54:00,
2013-03-22 18:59:00,38.0,21.5,29.97,WNW,297,5.0,12.0,51,0.00,,---,0.00,44.00,VWS V14.00,2013-03-22 22:59:00,
2013-03-22 19:00:00,37.9,21.4,29.98,WNW,302,5.0,12.0,51,0.00,,---,0.00,33.00,VWS V14.00,2013-03-22 23:00:00,
2013-03-22 19:04:00,37.6,21.6,29.98,WNW,302,5.0,7.0,52,0.00,,---,0.00,32.00,VWS V14.00,2013-03-22 23:04:00,
2013-03-22 19:09:00,37.2,21.7,29.98,NW,305,5.0,7.0,53,0.00,,---,0.00,21.00,VWS V14.00,2013-03-22 23:09:00,
2013-03-22 19:14:00,36.9,21.4,29.98,WNW,302,4.0,7.0,53,0.00,,---,0.00,16.00,VWS V14.00,2013-03-22 23:14:00,
2013-03-22 19:19:00,36.6,21.1,29.98,WNW,302,0.0,7.0,53,0.00,,---,0.00,12.00,VWS V14.00,2013-03-22 23:19:00,
2013-03-22 19:24:00,36.3,20.8,29.98,NW,304,2.0,7.0,53,0.00,,---,0.00,9.00,VWS V14.00,2013-03-22 23:24:00,
2013-03-22 19:29:00,36.0,21.0,29.98,NW,304,0.0,7.0,54,0.00,,---,0.00,7.00,VWS V14.00,2013-03-22 23:29:00,
2013-03-22 19:30:00,35.9,20.9,29.98,NW,304,0.0,7.0,54,0.00,,---,0.00,5.00,VWS V14.00,2013-03-22 23:30:00,
2013-03-22 19:34:00,35.9,20.9,29.98,NW,304,0.0,1.0,54,0.00,,---,0.00,5.00,VWS V14.00,2013-03-22 23:34:00,
2013-03-22 19:39:00,35.7,20.7,29.99,NW,304,0.0,1.0,54,0.00,,---,0.00,0.00,VWS V14.00,2013-03-22 23:39:00,
2013-03-22 19:44:00,35.5,21.0,29.99,NW,304,0.0,2.0,55,0.00,,---,0.00,0.00,VWS V14.00,2013-03-22 23:44:00,
2013-03-22 19:49:00,35.1,21.0,29.99,NW,304,0.0,2.0,56,0.00,,---,0.00,0.00,VWS V14.00,2013-03-22 23:49:00,
2013-03-22 19:54:00,34.8,21.1,29.99,NW,304,1.0,2.0,57,0.00,,---,0.00,0.00,VWS V14.00,2013-03-22 23:54:00,
2013-03-22 19:59:00,34.6,21.0,29.99,NW,304,0.0,2.0,57,0.00,,---,0.00,0.00,VWS V14.00,2013-03-22 23:59:00,
2013-03-22 20:00:00,34.6,21.0,29.99,NW,304,0.0,2.0,57,0.00,,---,0.00,0.00,VWS V14.00,2013-03-23 00:00:00,
2013-03-22 20:04:00,34.4,20.8,29.99,NW,304,0.0,0.0,57,0.00,,---,0.00,0.00,VWS V14.00,2013-03-23 00:04:00,
2013-03-22 20:09:00,34.1,20.5,29.99,NW,304,0.0,1.0,57,0.00,,---,0.00,0.00,VWS V14.00,2013-03-23 00:09:00,
2013-03-22 20:14:00,33.8,20.6,29.99,NW,304,0.0,1.0,58,0.00,,---,0.00,0.00,VWS V14.00,2013-03-23 00:14:00,
2013-03-22 20:19:00,33.4,20.6,29.99,NW,304,0.0,1.0,59,0.00,,---,0.00,0.00,VWS V14.00,2013-03-23 00:19:00,
2013-03-22 20:24:00,33.2,20.4,30.00,NW,304,0.0,1.0,59,0.00,,---,0.00,0.00,VWS V14.00,2013-03-23 00:24:00,
2013-03-22 20:29:00,32.7,20.4,30.00,NW,304,0.0,1.0,60,0.00,,---,0.00,0.00,VWS V14.00,2013-03-23 00:29:00,
2013-03-22 20:30:00,32.7,20.4,30.00,NW,304,0.0,2.0,60,0.00,,---,0.00,0.00,VWS V14.00,2013-03-23 00:30:00,
2013-03-22 20:34:00,32.5,20.6,30.00,NW,304,0.0,0.0,61,0.00,,---,0.00,0.00,VWS V14.00,2013-03-23 00:34:00,
2013-03-22 20:39:00,32.2,20.7,30.00,NNE,15,0.0,3.0,62,0.00,,---,0.00,0.00,VWS V14.00,2013-03-23 00:39:00,
2013-03-22 20:44:00,31.9,20.4,30.00,NNE,15,0.0,3.0,62,0.00,,---,0.00,0.00,VWS V14.00,2013-03-23 00:44:00,
2013-03-22 20:49:00,31.7,20.6,30.01,NNE,15,0.0,3.0,63,0.00,,---,0.00,0.00,VWS V14.00,2013-03-23 00:49:00,
2013-03-22 20:54:00,31.3,20.5,30.01,NNE,15,0.0,3.0,64,0.00,,---,0.00,0.00,VWS V14.00,2013-03-23 00:54:00,
2013-03-22 20:59:00,30.9,20.2,30.01,NNE,15,0.0,3.0,64,0.00,,---,0.00,0.00,VWS V14.00,2013-03-23 00:59:00,
2013-03-22 21:00:00,30.7,20.3,30.01,NNE,15,0.0,3.0,65,0.00,,---,0.00,0.00,VWS V14.00,2013-03-23 01:00:00,
2013-03-22 21:04:00,30.5,20.5,30.01,NNE,15,0.0,0.0,66,0.00,,---,0.00,0.00,VWS V14.00,2013-03-23 01:04:00,
2013-03-22 21:09:00,30.1,20.5,30.01,NNE,15,0.0,0.0,67,0.00,,---,0.00,0.00,VWS V14.00,2013-03-23 01:09:00,
2013-03-22 21:14:00,29.8,20.2,30.01,NNE,15,0.0,0.0,67,0.00,,---,0.00,0.00,VWS V14.00,2013-03-23 01:14:00,
2013-03-22 21:19:00,29.6,20.0,30.01,NNE,15,0.0,0.0,67,0.00,,---,0.00,0.00,VWS V14.00,2013-03-23 01:19:00,
2013-03-22 21:24:00,29.2,20.0,30.01,NNE,15,0.0,0.0,68,0.00,,---,0.00,0.00,VWS V14.00,2013-03-23 01:24:00,
2013-03-22 21:29:00,28.9,19.7,30.02,NNE,15,0.0,0.0,68,0.00,,---,0.00,0.00,VWS V14.00,2013-03-23 01:29:00,
2013-03-22 21:30:00,28.8,19.6,30.02,NNE,15,0.0,0.0,68,0.00,,---,0.00,0.00,VWS V14.00,2013-03-23 01:30:00,
2013-03-22 21:34:00,28.6,19.7,30.02,NNE,15,0.0,0.0,69,0.00,,---,0.00,0.00,VWS V14.00,2013-03-23 01:34:00,
2013-03-22 21:39:00,28.3,19.8,30.02,NNE,15,0.0,0.0,70,0.00,,---,0.00,0.00,VWS V14.00,2013-03-23 01:39:00,
2013-03-22 21:44:00,28.0,19.5,30.02,NNE,15,0.0,0.0,70,0.00,,---,0.00,0.00,VWS V14.00,2013-03-23 01:44:00,
2013-03-22 21:49:00,27.9,19.7,30.02,NNE,15,0.0,0.0,71,0.00,,---,0.00,0.00,VWS V14.00,2013-03-23 01:49:00,
2013-03-22 21:55:00,27.8,19.6,30.02,NNE,15,0.0,0.0,71,0.00,,---,0.00,0.00,VWS V14.00,2013-03-23 01:55:00,
2013-03-22 22:00:00,27.5,19.4,30.02,NNE,15,0.0,0.0,71,0.00,,---,0.00,0.00,VWS V14.00,2013-03-23 02:00:00,
2013-03-22 22:05:00,27.3,19.5,30.03,NNE,15,0.0,0.0,72,0.00,,---,0.00,0.00,VWS V14.00,2013-03-23 02:05:00,
2013-03-22 22:10:00,27.0,19.2,30.02,NNE,15,0.0,0.0,72,0.00,,---,0.00,0.00,VWS V14.00,2013-03-23 02:10:00,
2013-03-22 22:15:00,26.8,19.3,30.03,NNE,15,0.0,0.0,73,0.00,,---,0.00,0.00,VWS V14.00,2013-03-23 02:15:00,
2013-03-22 22:20:00,26.7,19.2,30.03,NNE,15,0.0,0.0,73,0.00,,---,0.00,0.00,VWS V14.00,2013-03-23 02:20:00,
2013-03-22 22:25:00,26.5,19.4,30.03,NNE,15,0.0,0.0,74,0.00,,---,0.00,0.00,VWS V14.00,2013-03-23 02:25:00,
2013-03-22 22:30:00,26.2,19.1,30.03,NNE,15,0.0,0.0,74,0.00,,---,0.00,0.00,VWS V14.00,2013-03-23 02:30:00,
2013-03-22 22:35:00,26.1,19.6,30.03,NNE,15,0.0,0.0,76,0.00,,---,0.00,0.00,VWS V14.00,2013-03-23 02:35:00,
2013-03-22 22:40:00,26.0,19.2,30.03,NNE,15,0.0,0.0,75,0.00,,---,0.00,0.00,VWS V14.00,2013-03-23 02:40:00,
2013-03-22 22:45:00,26.0,19.2,30.03,NNE,15,0.0,0.0,75,0.00,,---,0.00,0.00,VWS V14.00,2013-03-23 02:45:00,
2013-03-22 22:50:00,25.8,18.7,30.03,NNE,15,0.0,0.0,74,0.00,,---,0.00,0.00,VWS V14.00,2013-03-23 02:50:00,
2013-03-22 22:55:00,25.6,19.1,30.03,NNE,15,0.0,0.0,76,0.00,,---,0.00,0.00,VWS V14.00,2013-03-23 02:55:00,
2013-03-22 23:00:00,25.4,19.2,30.03,NNE,15,0.0,0.0,77,0.00,,---,0.00,0.00,VWS V14.00,2013-03-23 03:00:00,
2013-03-22 23:05:00,25.3,19.4,30.03,NNE,15,0.0,0.0,78,0.00,,---,0.00,0.00,VWS V14.00,2013-03-23 03:05:00,
2013-03-22 23:10:00,25.3,19.7,30.03,NNE,15,0.0,0.0,79,0.00,,---,0.00,0.00,VWS V14.00,2013-03-23 03:10:00,
2013-03-22 23:15:00,25.3,19.7,30.03,NNE,15,0.0,0.0,79,0.00,,---,0.00,0.00,VWS V14.00,2013-03-23 03:15:00,
2013-03-22 23:20:00,25.2,19.3,30.03,NNE,15,0.0,0.0,78,0.00,,---,0.00,0.00,VWS V14.00,2013-03-23 03:20:00,
2013-03-22 23:25:00,25.0,19.4,30.03,NNE,15,0.0,0.0,79,0.00,,---,0.00,0.00,VWS V14.00,2013-03-23 03:25:00,
2013-03-22 23:30:00,24.8,19.2,30.03,NNE,15,0.0,0.0,79,0.00,,---,0.00,0.00,VWS V14.00,2013-03-23 03:30:00,
2013-03-22 23:35:00,24.6,19.3,30.03,NNE,15,0.0,0.0,80,0.00,,---,0.00,0.00,VWS V14.00,2013-03-23 03:35:00,
2013-03-22 23:40:00,24.4,19.4,30.03,NNE,15,0.0,0.0,81,0.00,,---,0.00,0.00,VWS V14.00,2013-03-23 03:40:00,
2013-03-22 23:45:00,24.3,19.3,30.03,NNE,15,0.0,0.0,81,0.00,,---,0.00,0.00,VWS V14.00,2013-03-23 03:45:00,
2013-03-22 23:50:00,24.3,19.3,30.03,NNE,15,0.0,2.0,81,0.00,,---,0.00,0.00,VWS V14.00,2013-03-23 03:50:00,
2013-03-22 23:55:00,24.2,19.2,30.03,NNE,15,0.0,2.0,81,0.00,,---,0.00,0.00,VWS V14.00,2013-03-23 03:55:00,